This demonstration page uses our WeatherBlox Daily Observations layout. Learn more.

Left ArrowRight Arrow

41.86663, -103.66717

Hourly Observations for August 29, 2021

Temp ( °F °C ) Dew Point ( °F °C ) Humidity (%) Winds ( mph kmh ) Pressure ( in mb ) Visibility ( mi km ) Precip ( " mm )
12:53 am 00:53 Clear 59 15 47 8.3 64 64 undefined N/A 30.08 1019 10 16 N/A
1:53 am 01:53 Clear 54 12.2 46 7.8 75 75 undefined N/A 30.09 1019 10 16 N/A
2:53 am 02:53 Clear 51 10.6 46 7.8 83 83 NE 3 6 30.11 1020 10 16 N/A
3:53 am 03:53 Partly Cloudy 52 11.1 46 7.8 80 80 N N/A 30.12 1020 10 16 N/A
4:53 am 04:53 Cloudy 54 12.2 47 8.3 77 77 N N/A 30.11 1020 10 16 N/A
5:53 am 05:53 Cloudy 55 12.8 47 8.3 74 74 NE 3 6 30.11 1020 10 16 N/A
6:53 am 06:53 Cloudy 56 13.3 49 9.4 77 77 ESE 3 6 30.13 1020 10 16 N/A
7:53 am 07:53 Sunny 56 13.3 49 9.4 77 77 S 3 6 30.14 1021 10 16 N/A
8:53 am 08:53 Partly Cloudy 61 16.1 48 8.9 63 63 VRB 5 7 30.13 1020 10 16 N/A
9:53 am 09:53 Mostly Cloudy 65 18.3 45 7.2 49 49 SE 10 17 30.13 1020 10 16 N/A
10:53 am 10:53 Mostly Cloudy 69 20.6 46 7.8 44 44 ESE 10 17 30.11 1020 10 16 N/A
11:53 am 11:53 Cloudy 72 22.2 48 8.9 43 43 E 10 17 30.09 1019 10 16 N/A
12:53 pm 12:53 Sunny 76 24.4 50 10 40 40 ESE 9 15 30.04 1017 10 16 N/A
1:53 pm 13:53 Sunny 82 27.8 48 8.9 31 31 SSE 18 30 30.02 1017 10 16 N/A
2:53 pm 14:53 Sunny 82 27.8 44 6.7 26 26 SSE 15 24 29.99 1016 10 16 N/A
3:53 pm 15:53 Sunny 84 28.9 44 6.7 25 25 SSE 16 26 29.96 1014 10 16 N/A
4:53 pm 16:53 Sunny 84 28.9 43 6.1 24 24 SSE 17 28 29.93 1014 10 16 N/A
5:53 pm 17:53 Sunny 81 27.2 48 8.9 32 32 SSE 14 22 29.93 1013 10 16 N/A
6:53 pm 18:53 Sunny 78 25.6 52 11.1 40 40 SSE 9 15 29.92 1013 10 16 N/A
7:53 pm 19:53 Clear 74 23.3 56 13.3 54 54 SE 13 20 29.93 1014 10 16 N/A
8:53 pm 20:53 Clear 71 21.7 58 14.4 63 63 SE 13 20 29.94 1014 10 16 N/A
9:53 pm 21:53 Clear 67 19.4 58 14.4 73 73 ESE 7 11 29.95 1014 10 16 N/A
10:53 pm 22:53 Clear 65 18.3 58 14.4 78 78 ESE 9 15 29.94 1014 10 16 N/A
11:53 pm 23:53 Clear 63 17.2 58 14.4 84 84 ESE 9 15 29.92 1013 10 16 N/A

Powered by AerisWeather